Zurück zum Katalog

STARLINK-4390

AktivKommunikationPO
NORAD 53653·PAYLOAD·🇺🇸 United States

Gestartet Aug 31, 2022 von Vandenberg Space Force Base

Loading…

Nächste Überflüge (nächste 24 Stunden)

TLE

AktuellSource: CelesTrak SupGP

Epoche: Sep 14, 2026, 21:50 UTC

1 53653C 22105F   26257.91020833  .00810430  00000+0  13647-2 0  2575
2 53653  97.5866 148.4547 0002977 170.4013 339.0359 16.02351522    19

Verfolge STARLINK-4390 in Echtzeit mit AllMySat

Download on the App Store